Home   Weather   Chetwynd   Past weeks
Flag for Canada

Past Weather in Chetwynd, British Columbia, Canada — Yesterday and Last 2 Weeks

Now
32 °F

Light snow. Fog.


Feels Like: 25 °F
Forecast: 42 / 31 °F
Wind: 8 mph from West

Location: Fort St John

Current Time: Oct 19, 2019 at 3:05:23 am

Latest Report: Oct 19, 2019 at 2:13 am


Visibility: 2 mi

Pressure: 29.54 "Hg (27.28 "Hg at 636m altitude)

Humidity: 100%

Dew Point: 32 °F

Location of ChetwyndLocation

Past Weather in Chetwynd — Graph

°F

Chetwynd Temperature Yesterday

Maximum temperature yesterday: 46 °F (at 3:00 pm)
Minimum temperature yesterday: 32 °F (at 9:29 pm)
Average temperature yesterday: 38 °F

High & Low Weather Summary for the Past Weeks

 TemperatureHumidityPressure
High52 °F (Oct 5, 1:00 pm)100% (Oct 5, 3:00 am)30.40 "Hg (Oct 5, 3:00 am)
Low18 °F (Oct 9, 6:00 am)35% (Oct 12, 3:00 pm)29.30 "Hg (Oct 17, 2:00 pm)
Average37 °F76%29.88 "Hg
* Reported Oct 4 2:00 am — Oct 19 2:00 am, Chetwynd. Weather by CustomWeather, © 2019

Note: Actual official high and low records may vary slightly from our data, if they occured in-between our weather recording intervals... More about our weather records

Advertising

Chetwynd Weather History for the Previous 24 Hours

Scroll right to see more
 ConditionsComfort  
Time TempWeatherWind HumidityBarometerVisibility
2:00 am
Sat, Oct 19
32 °FLight snow. Dense fog.9 mph100%29.54 "Hg1 mi
1:39 am32 °FLight snow. Mostly cloudy.8 mph100%29.53 "Hg2 mi
1:21 am32 °FLight snow. Low clouds.9 mph100%29.53 "Hg2 mi
1:00 am32 °FLight snow. Overcast.8 mph100%29.52 "Hg10 mi
12:00 am32 °FLight snow. Overcast.6 mph100%29.51 "Hg8 mi
11:00 pm
Fri, Oct 18
32 °FLight snow. Overcast.5 mph100%29.49 "Hg8 mi
10:44 pm32 °FLight snow. Low clouds.7 mph100%29.50 "Hg8 mi
10:36 pm32 °FLight snow. Mostly cloudy.6 mph100%29.50 "Hg3 mi
10:15 pm32 °FLight snow. Dense fog.6 mph100%29.49 "Hg1 mi
9:29 pm32 °FSnow flurries. Low clouds.8 mph100%29.48 "Hg3 mi
9:13 pm34 °FSprinkles. Mostly cloudy.10 mph93%29.48 "Hg5 mi
8:00 pm37 °FSprinkles. Mostly cloudy.15 mph93%29.45 "Hg15 mi
7:00 pm39 °FSprinkles. Mostly cloudy.14 mph81%29.43 "Hg15 mi
6:37 pm39 °FSprinkles. Overcast.8 mph87%29.43 "Hg50 mi
6:00 pm39 °FSprinkles. Mostly cloudy.15 mph87%29.43 "Hg50 mi
5:48 pm39 °FSprinkles. Mostly cloudy.16 mph87%29.44 "Hg50 mi
5:00 pm45 °FBroken clouds.20 mph57%29.41 "Hg50 mi
4:00 pm46 °FScattered showers. Broken clouds.18 mph57%29.39 "Hg60 mi
3:00 pm46 °FScattered showers. Partly sunny.20 mph57%29.39 "Hg60 mi
2:00 pm45 °FBroken clouds.13 mph66%29.39 "Hg60 mi
1:28 pm45 °FScattered showers. Broken clouds.15 mph66%29.39 "Hg60 mi
1:06 pm45 °FLight rain. Partly sunny.15 mph66%29.39 "Hg60 mi
12:00 pm45 °FBroken clouds.9 mph71%29.38 "Hg60 mi
11:00 am41 °FBroken clouds.7 mph87%29.37 "Hg60 mi
10:00 am36 °FBroken clouds.No wind93%29.38 "Hg60 mi
9:00 am34 °FFog.6 mph93%29.36 "Hg60 mi
8:00 am34 °FPartly cloudy.No wind87%29.36 "Hg30 mi
7:00 am36 °FPartly cloudy.8 mph93%29.34 "Hg15 mi
6:00 am36 °FOvercast.2 mph93%29.34 "Hg15 mi
5:00 am37 °FMostly cloudy.5 mph87%29.32 "Hg15 mi
4:00 am37 °FMostly cloudy.7 mph87%29.32 "Hg15 mi
3:48 am37 °FMostly cloudy.7 mph93%29.32 "Hg15 mi
3:00 am39 °FLight rain. Overcast.5 mph87%29.32 "Hg15 mi
Weather by CustomWeather, © 2019

See weather overview